Friday, February 23, 2018, 1:43 PM EST
Back to Local

KDOV, Dover Air Force Base

Location: Dover, DE, United States Lat: 39.133
Local Time: 1:43 PM EST (18:43 GMT) Lon: -75.467
Time Zone: US/Eastern Elev: 29 ft

Show me the last for .
Show Coded

Time T Td Feel RH Dir Speed Gust Alt SLP Vis Weather Sky Remarks
2018-02-23 13:21 45 43 40 93 50° 8 - 30.46 30.47 1 BR OVC006 None
2018-02-23 13:17 43 43 39 100 60° 6 - 30.46 30.47 1 -RA BR OVC006 None
2018-02-23 13:12 43 43 39 100 60° 7 - 30.46 30.47 1 -RA BR OVC006 None
2018-02-23 13:07 43 43 39 100 50° 6 - 30.47 30.48 1 -RA BR OVC006 None
2018-02-23 13:06 43 43 39 100 50° 7 - 30.47 30.48 1 BR OVC006 None
2018-02-23 13:01 43 43 39 100 70° 6 - 30.47 30.48 1 BR OVC007 None
2018-02-23 12:56 43 43 39 97 60° 8 - 30.47 30.48 1 BR OVC007 6-hr Precip Total (1pm): 0.10"
6-hr Min Temp (1pm): 40.3°F
6-hr Max Temp (1pm): 43.3°F
2018-02-23 12:31 43 43 37 100 70° 9 - 30.49 30.50 1 BR OVC007 None
2018-02-23 11:56 43 42 38 97 60° 8 - 30.51 30.52 1 BR OVC006 None
2018-02-23 11:36 43 43 37 100 70° 9 - 30.52 30.53 1 BR OVC006 None
2018-02-23 11:21 43 41 37 93 60° 9 - 30.53 30.54 2 BR OVC006 None
2018-02-23 10:56 42 42 37 97 50° 8 - 30.54 30.55 2 BR OVC007 1-hr Precip Total: 0.01"
2018-02-23 10:55 43 41 38 93 50° 8 - 30.54 30.55 2 BR OVC007 None
2018-02-23 10:35 43 41 38 93 50° 8 - 30.55 30.56 3 BR OVC007 None
2018-02-23 10:25 43 41 37 93 60° 10 - 30.55 30.56 2 BR OVC006 None
2018-02-23 10:11 41 41 35 100 60° 10 - 30.56 30.57 2 -RA BR OVC006 Variable visibility
2018-02-23 09:56 42 40 35 95 50° 10 - 30.56 30.57 3 BR BKN006 OVC011 1-hr Precip Total: 0.09"
6-hr Precip Total (10am): 0.09"
2018-02-23 09:48 41 41 36 100 50° 8 - 30.57 30.58 10 BKN006 OVC011 None
2018-02-23 09:41 41 41 36 100 50° 8 - 30.57 30.58 6 -RA BR BKN006 OVC011 None
2018-02-23 09:31 41 41 36 100 40° 8 - 30.58 30.59 3 -RA BR SCT006 OVC010 None
2018-02-23 09:26 41 41 36 100 50° 7 - 30.58 30.59 1 -RA BR SCT006 OVC010 Variable visibility
2018-02-23 09:21 41 41 36 100 40° 8 - 30.58 30.59 1 +RA BR OVC008 Variable visibility
2018-02-23 08:56 41 40 36 97 60° 7 - 30.58 30.59 2 -RA BR OVC008 Variable visibility
1-hr Precip Total: Trace
2018-02-23 08:54 41 41 36 100 50° 7 - 30.58 30.59 2 -RA BR OVC008 Variable visibility
2018-02-23 08:51 41 41 36 100 60° 8 - 30.58 30.59 2 BR BKN006 OVC010 Variable visibility
2018-02-23 08:41 41 41 35 100 60° 9 - 30.58 30.59 4 BR OVC008 None
2018-02-23 08:28 41 41 35 100 70° 10 - 30.58 30.59 3 -RA BR OVC007 None
2018-02-23 08:21 41 41 35 100 50° 9 - 30.58 30.59 2 -RA BR OVC007 Variable visibility
2018-02-23 08:14 41 41 34 100 60° 12 - 30.58 30.59 2 BR OVC007 None
2018-02-23 07:56 41 40 35 97 60° 9 - 30.58 30.59 2 -DZ BR OVC008 1-hr Precip Total: 0.01"
2018-02-23 07:51 41 39 36 93 60° 8 - 30.58 30.59 2 BR BKN006 OVC010 Variable visibility
2018-02-23 07:41 41 39 34 93 60° 12 - 30.57 30.58 2 BR OVC008 None
2018-02-23 07:36 41 39 34 93 60° 12 - 30.58 30.59 2 -RA BR OVC008 None
2018-02-23 07:21 41 39 36 93 50° 8 - 30.59 30.60 2 -RA BR OVC007 None
2018-02-23 07:16 41 39 35 93 50° 10 - 30.59 30.60 3 -RA BR OVC007 None
2018-02-23 07:12 41 39 36 93 40° 8 - 30.59 30.60 3 -RA BR OVC008 None
2018-02-23 07:11 41 39 36 93 40° 7 - 30.59 30.60 3 -RA BR OVC008 None
2018-02-23 06:56 40 39 34 93 50° 9 - 30.58 30.59 7 OVC008 1-hr Precip Total: Trace
6-hr Precip Total (7am): 0.07"
24-hr Precip Total (7am): 0.11"
6-hr Min Temp (7am): 39.4°F
6-hr Max Temp (7am): 40.3°F
2018-02-23 06:47 41 39 35 93 40° 9 - 30.58 30.59 9 OVC008 None
2018-02-23 06:37 41 39 35 93 50° 9 - 30.57 30.58 10 -DZ OVC008 None
2018-02-23 05:56 40 38 33 93 60° 10 - 30.57 30.58 10 OVC008 1-hr Precip Total: Trace
2018-02-23 05:47 39 39 33 100 50° 9 - 30.58 30.59 10 OVC008 None
2018-02-23 05:34 39 39 34 100 60° 8 - 30.58 30.59 10 -RA OVC009 None
2018-02-23 05:06 39 37 35 93 50° 6 - 30.59 30.60 8 OVC009 None
2018-02-23 04:56 39 38 34 93 50° 8 - 30.59 30.60 10 OVC010 1-hr Precip Total: 0.05"
2018-02-23 04:46 39 37 34 93 50° 8 - 30.59 30.60 10 OVC010 None
2018-02-23 04:42 39 37 34 93 50° 8 - 30.59 30.60 9 -DZ OVC010 None
2018-02-23 04:27 39 37 34 93 40° 8 - 30.60 30.61 6 -RA BR OVC011 None
2018-02-23 04:22 39 37 35 93 50° 6 - 30.60 30.61 5 -RA BR BKN010 OVC014 None
2018-02-23 03:56 39 38 34 93 30° 7 - 30.59 30.60 7 -RA OVC011 1-hr Precip Total: 0.02"
6-hr Precip Total (4am): 0.02"
2018-02-23 03:46 39 37 34 93 30° 7 - 30.59 30.60 7 -RA OVC011 None
2018-02-23 03:11 39 36 34 86 50° 8 - 30.59 30.60 10 -RA OVC014 None
2018-02-23 02:56 40 36 34 86 40° 9 - 30.59 30.60 10 OVC014 None
2018-02-23 02:36 39 36 35 86 40° 6 - 30.60 30.61 10 OVC014 None
2018-02-23 01:56 40 36 32 84 40° 14 - 30.61 30.62 10 OVC015 None
2018-02-23 01:51 39 36 32 86 40° 10 - 30.61 30.62 10 OVC015 None
2018-02-23 00:56 40 37 33 86 40° 14 - 30.60 30.61 10 OVC013 6-hr Precip Total (1am): 0.00"
6-hr Min Temp (1am): 39.9°F
6-hr Max Temp (1am): 40.6°F
2018-02-23 00:21 41 37 35 86 30° 10 - 30.61 30.62 10 OVC013 None
2018-02-23 00:11 41 37 34 86 30° 12 - 30.61 30.62 10 OVC015 None
2018-02-23 00:06 41 37 35 86 20° 10 - 30.61 30.62 10 BKN014 OVC019 None
2018-02-22 23:56 40 36 35 85 40° 8 - 30.61 30.62 10 BKN016 OVC028 24-hr Min Temp (12am): 39.9°F
24-hr Max Temp (12am): 64.0°F
2018-02-22 23:51 41 36 33 80 40° 14 - 30.61 30.62 10 BKN018 OVC028 None
2018-02-22 22:56 40 36 35 85 40° 9 - 30.61 30.62 10 SCT016 OVC028 None
2018-02-22 21:56 40 37 34 88 60° 10 - 30.60 30.61 10 SCT014 OVC027 6-hr Precip Total (10pm): 0.00"
2018-02-22 21:51 41 37 36 86 50° 7 - 30.60 30.61 10 SCT014 OVC027 None
2018-02-22 21:11 41 37 33 86 50° 14 - 30.59 30.60 10 OVC013 None
2018-02-22 21:06 41 37 33 86 50° 15 - 30.58 30.59 10 OVC011 None
2018-02-22 20:56 40 38 32 91 60° 14 - 30.58 30.59 10 BKN010 OVC015 None
2018-02-22 20:51 39 37 31 93 60° 14 - 30.58 30.59 10 OVC010 None
2018-02-22 20:46 41 37 33 86 60° 16 - 30.59 30.60 10 OVC011 None
2018-02-22 20:21 41 37 31 86 60° 18 22 30.57 30.58 10 OVC012 None
2018-02-22 20:06 41 37 32 86 60° 17 - 30.58 30.59 10 OVC011 None
2018-02-22 19:56 40 38 32 89 60° 16 - 30.58 30.59 10 OVC012 1-hr Precip Total: Trace
2018-02-22 19:22 41 37 30 86 50° 16 28 30.59 30.60 10 OVC012 None
2018-02-22 19:06 41 39 30 93 50° 22 28 30.58 30.59 10 -RA BKN009 OVC014 None
2018-02-22 18:56 41 39 31 93 40° 16 23 30.58 30.59 6 -RA BR BKN007 BKN011 OVC022 1-hr Precip Total: 0.03"
6-hr Precip Total (7pm): 0.04"
6-hr Min Temp (7pm): 40.8°F
6-hr Max Temp (7pm): 49.1°F
2018-02-22 17:56 42 41 34 95 10° 20 - 30.57 30.58 6 -RA BR BKN007 OVC017 1-hr Precip Total: Trace
2018-02-22 17:53 43 41 35 93 10° 18 - 30.56 30.57 5 -RA BR BKN007 OVC017 None
2018-02-22 17:23 43 43 33 100 10° 18 25 30.54 30.55 4 -RA BR BKN006 OVC011 None
2018-02-22 17:11 45 43 37 93 20° 17 - 30.54 30.55 3 -RA BR BKN006 OVC011 None
2018-02-22 17:01 45 43 37 93 20° 18 - 30.54 30.55 2 -RA BR SCT006 OVC015 None
2018-02-22 16:56 44 43 37 95 20° 16 - 30.53 30.54 3 -RA BR BKN006 OVC015 1-hr Precip Total: 0.01"
2018-02-22 16:55 45 43 37 93 20° 17 - 30.53 30.54 3 -RA BR BKN006 OVC015 None
2018-02-22 16:45 45 43 38 93 20° 14 - 30.52 30.53 3 -RA BR SCT006 OVC015 None
2018-02-22 16:40 45 43 38 93 20° 14 - 30.52 30.53 2 -RA BR SCT006 OVC015 Variable visibility
2018-02-22 16:35 45 43 38 93 30° 14 - 30.51 30.52 2 -RA BR SCT006 OVC013 None
2018-02-22 16:25 45 45 38 100 20° 15 - 30.52 30.53 1 -RA BR OVC007 None
2018-02-22 16:20 45 45 38 100 10° 13 - 30.52 30.53 1 -RA BR BKN006 OVC011 None
2018-02-22 16:10 45 45 40 100 30° 9 - 30.51 30.52 2 -RA BR SCT007 OVC011 None
2018-02-22 16:05 45 45 39 100 30° 10 - 30.50 30.51 2 -RA BR BKN007 OVC013 None
2018-02-22 15:56 45 43 40 94 50° 10 - 30.49 30.50 2 -RA BR SCT010 OVC015 Variable visibility
1-hr Precip Total: Trace
6-hr Precip Total (4pm): 0.00"
2018-02-22 15:51 45 43 39 93 50° 12 - 30.49 30.50 2 BR OVC012 Variable visibility
2018-02-22 15:26 46 43 41 87 60° 13 - 30.47 30.48 5 BR BKN012 OVC017 Pressure rising rapidly
2018-02-22 15:11 46 43 41 87 70° 13 - 30.45 30.46 5 BR OVC015 None
2018-02-22 14:56 47 42 39 81 80° 15 22 30.45 30.46 10 OVC014 None
2018-02-22 14:36 48 41 43 76 80° 13 - 30.46 30.47 10 OVC014 None
2018-02-22 14:11 48 41 43 76 80° 14 - 30.46 30.47 10 OVC018 None
2018-02-22 13:56 49 41 44 74 80° 13 - 30.46 30.47 10 OVC020 1-hr Precip Total: Trace
6-hr Precip Total (2pm): 0.00"
2018-02-22 13:53 48 41 43 76 90° 13 - 30.46 30.47 10 OVC020 None

Support USWX by starting your Amazon purchase here.